This is the latest recevied weather packets stored in our database for station/object K4DNM. If no packets are shown the sender has not sent any weather packets the latest 10 day(s).
| Time | Temp. | Humidity | Pressure | Rain* | Wind** | Luminosity | Snow |
|---|---|---|---|---|---|---|---|
| 1778152219 | 18.89° C | 100% | 1009.4 hPa | 1.27 mm | - | 5 W/m² | - |
| 1778151919 | 18.89° C | 100% | 1009.4 hPa | 1.27 mm | - | 4 W/m² | - |
| 1778151657 | 18.89° C | 100% | 1009 hPa | 0.76 mm | - | 0 W/m² | - |
| 1778151648 | 18.89° C | 100% | 1009.3 hPa | 1.27 mm | - | 3 W/m² | - |
| 1778151599 | 18.89° C | 100% | 1009.1 hPa | 1.02 mm | - | 5 W/m² | - |
| 1778151544 | 18.89° C | 100% | 1009.1 hPa | 1.02 mm | - | 2 W/m² | - |
| 1778151434 | 18.89° C | 100% | 1009.2 hPa | 0.76 mm | - | 0 W/m² | - |
| 1778150404 | 18.89° C | 100% | 1009 hPa | 0.76 mm | - | 0 W/m² | - |
| 1778150103 | 18.89° C | 100% | 1009.1 hPa | 1.02 mm | - | 0 W/m² | - |
| 1778149805 | 18.89° C | 100% | 1009.3 hPa | 0.76 mm | - | 0 W/m² | - |
| 1778149506 | 18.89° C | 100% | 1009.4 hPa | 0.76 mm | - | 0 W/m² | - |
| 1778149206 | 18.89° C | 100% | 1009.2 hPa | 0.76 mm | - | 0 W/m² | - |
| 1778148906 | 18.89° C | 100% | 1009.1 hPa | 0.51 mm | - | 0 W/m² | - |
| 1778148606 | 18.89° C | 100% | 1009.1 hPa | 0.51 mm | - | 0 W/m² | - |
| 1778148291 | 18.89° C | 100% | 1008.9 hPa | 0.76 mm | - | 0 W/m² | - |
| 1778147989 | 18.89° C | 100% | 1008.9 hPa | 1.27 mm | - | 0 W/m² | - |
| 1778147692 | 18.89° C | 100% | 1008.8 hPa | 2.29 mm | - | 0 W/m² | - |
| 1778147393 | 18.89° C | 100% | 1008.9 hPa | 3.3 mm | - | 0 W/m² | - |
| 1778147089 | 18.89° C | 100% | 1008.8 hPa | 3.81 mm | - | 0 W/m² | - |
| 1778146787 | 18.89° C | 100% | 1008.8 hPa | 4.57 mm | - | 0 W/m² | - |
| 1778146488 | 18.89° C | 100% | 1008.8 hPa | 4.83 mm | - | 0 W/m² | - |
| 1778146189 | 18.89° C | 100% | 1009 hPa | 5.08 mm | - | 0 W/m² | - |
| 1778145888 | 18.89° C | 100% | 1009 hPa | 5.08 mm | - | 0 W/m² | - |
| 1778145588 | 18.89° C | 100% | 1009 hPa | 5.59 mm | - | 0 W/m² | - |
| 1778145288 | 18.89° C | 100% | 1009 hPa | 5.84 mm | - | 0 W/m² | - |
* Rain latest hour (hover to see other rain measurements)
** Current wind speed in m/s (hover to see current wind gust speed)